Location: Palomar Mountain Lodge
(33.3110°N, 116.8495°W)
Time: 08:55:43
(UTC-08:00)

Skynet4D Del rocket - Pass Details

Date: 13 December 2025
Orbit: 763 x 1289 km, 26.9° (Epoch: 22 January)

Event Time Altitude Azimuth Distance (km) Brightness Sun altitude
Rises 18:34:17 0° 252° (WSW) 3,291 8.3 -23.0°
Reaches altitude 10° 18:36:46 10° 246° (WSW) 2,410 7.1 -23.5°
Maximum altitude 18:42:13 46° 174° (S) 1,180 4.4 -24.6°
Enters shadow 18:43:46 38° 137° (SE) 1,352 4.5 -24.9°
